Time,TemperatureF,DewpointF,PressureIn,WindDirection,WindDirectionDegrees,WindSpeedMPH,WindSpeedGustMPH,Humidity,HourlyPrecipIn,Conditions,Clouds,dailyrainin,SolarRadiationWatts/m^2,SoftwareType,DateUTC
2013-05-24 00:00:00,56.0,52.0,-100.00,NW,314,16.3,27.5,86,0.00,,,-99.99,1.0,HOBO +U30 +Weather +,2013-05-24 06:00:00,
2013-05-24 00:05:00,55.8,52.0,-100.00,NW,326,14.5,26.4,86,0.00,,,-99.99,1.0,HOBO +U30 +Weather +,2013-05-24 06:05:00,
2013-05-24 00:10:00,55.8,51.9,-100.00,NW,326,17.4,25.3,86,0.00,,,-99.99,1.0,HOBO +U30 +Weather +,2013-05-24 06:10:00,
2013-05-24 00:15:00,55.7,52.0,-100.00,NNW,331,14.1,26.4,87,0.00,,,-99.99,1.0,HOBO +U30 +Weather +,2013-05-24 06:15:00,
2013-05-24 00:20:00,55.8,51.8,-100.00,NNW,330,14.5,24.8,86,0.00,,,-99.99,1.0,HOBO +U30 +Weather +,2013-05-24 06:20:00,
2013-05-24 00:25:00,56.0,51.8,-100.00,NNW,334,13.0,23.0,85,0.00,,,-99.99,1.0,HOBO +U30 +Weather +,2013-05-24 06:25:00,
2013-05-24 00:30:00,56.2,51.8,-100.00,NNW,330,13.0,21.9,84,0.00,,,-99.99,1.0,HOBO +U30 +Weather +,2013-05-24 06:30:00,
2013-05-24 00:35:00,56.5,51.8,-100.00,NNW,340,13.0,18.1,84,0.00,,,-99.99,1.0,HOBO +U30 +Weather +,2013-05-24 06:35:00,
2013-05-24 00:40:00,56.5,51.9,-100.00,North,350,12.3,18.1,84,0.00,,,-99.99,1.0,HOBO +U30 +Weather +,2013-05-24 06:40:00,
2013-05-24 00:45:00,56.5,51.6,-100.00,North,354,14.1,21.9,83,0.00,,,-99.99,1.0,HOBO +U30 +Weather +,2013-05-24 06:45:00,
2013-05-24 00:55:00,56.8,51.3,-100.00,NNE,18,13.4,20.8,81,0.00,,,-99.99,1.0,HOBO +U30 +Weather +,2013-05-24 06:55:00,
2013-05-24 00:56:00,56.6,51.4,-100.00,North,4,14.5,23.7,82,0.00,,,-99.99,1.0,HOBO +U30 +Weather +,2013-05-24 06:56:00,
2013-05-24 01:00:00,56.9,51.1,-100.00,NNE,13,15.9,21.9,80,0.00,,,-99.99,1.0,HOBO +U30 +Weather +,2013-05-24 07:00:00,
2013-05-24 01:05:00,56.9,51.0,-100.00,North,7,13.0,23.7,80,0.00,,,-99.99,1.0,HOBO +U30 +Weather +,2013-05-24 07:05:00,
2013-05-24 01:10:00,56.5,51.0,-100.00,NNE,22,10.1,15.9,81,0.00,,,-99.99,1.0,HOBO +U30 +Weather +,2013-05-24 07:10:00,
2013-05-24 01:15:00,56.1,51.0,-100.00,NE,41,10.1,18.6,82,0.00,,,-99.99,1.0,HOBO +U30 +Weather +,2013-05-24 07:15:00,
2013-05-24 01:20:00,56.0,51.3,-100.00,SSE,161,5.1,10.1,84,0.00,,,-99.99,1.0,HOBO +U30 +Weather +,2013-05-24 07:20:00,
2013-05-24 01:25:00,56.5,51.4,-100.00,SSW,194,6.7,10.7,83,0.00,,,-99.99,1.0,HOBO +U30 +Weather +,2013-05-24 07:25:00,
2013-05-24 01:30:00,56.6,51.4,-100.00,South,173,3.4,7.4,82,0.00,,,-99.99,1.0,HOBO +U30 +Weather +,2013-05-24 07:30:00,
2013-05-24 01:35:00,56.8,51.5,-100.00,SSW,213,5.6,8.9,82,0.00,,,-99.99,1.0,HOBO +U30 +Weather +,2013-05-24 07:35:00,
2013-05-24 01:40:00,57.4,51.4,-100.00,WSW,254,6.3,11.9,80,0.00,,,-99.99,1.0,HOBO +U30 +Weather +,2013-05-24 07:40:00,
2013-05-24 01:45:00,57.0,51.9,-100.00,WSW,244,8.9,14.1,82,0.00,,,-99.99,1.0,HOBO +U30 +Weather +,2013-05-24 07:45:00,
2013-05-24 01:50:00,56.6,52.0,-100.00,SW,234,7.4,13.4,84,0.00,,,-99.99,1.0,HOBO +U30 +Weather +,2013-05-24 07:50:00,
2013-05-24 01:55:00,56.3,52.1,-100.00,SW,222,10.7,20.4,85,0.00,,,-99.99,1.0,HOBO +U30 +Weather +,2013-05-24 07:55:00,
2013-05-24 02:00:00,56.2,52.1,-100.00,SW,226,6.7,11.2,85,0.00,,,-99.99,1.0,HOBO +U30 +Weather +,2013-05-24 08:00:00,
2013-05-24 02:05:00,56.0,51.8,-100.00,SW,229,4.0,8.5,85,0.00,,,-99.99,1.0,HOBO +U30 +Weather +,2013-05-24 08:05:00,
2013-05-24 02:10:00,55.5,51.8,-100.00,WSW,251,6.3,12.3,87,0.00,,,-99.99,1.0,HOBO +U30 +Weather +,2013-05-24 08:10:00,
2013-05-24 02:15:00,55.3,51.8,-100.00,West,260,7.4,11.9,88,0.00,,,-99.99,1.0,HOBO +U30 +Weather +,2013-05-24 08:15:00,
2013-05-24 02:20:00,55.2,51.9,-100.00,WSW,251,2.9,6.7,88,0.00,,,-99.99,1.0,HOBO +U30 +Weather +,2013-05-24 08:20:00,
2013-05-24 02:25:00,55.1,51.9,-100.00,SSW,211,1.1,6.7,88,0.00,,,-99.99,1.0,HOBO +U30 +Weather +,2013-05-24 08:25:00,
2013-05-24 02:30:00,55.1,51.9,-100.00,NE,46,7.4,11.9,88,0.00,,,-99.99,1.0,HOBO +U30 +Weather +,2013-05-24 08:30:00,
2013-05-24 02:35:00,55.1,51.8,-100.00,NE,52,10.1,13.4,88,0.00,,,-99.99,1.0,HOBO +U30 +Weather +,2013-05-24 08:35:00,
2013-05-24 02:40:00,54.9,51.4,-100.00,NE,42,7.8,13.4,88,0.00,,,-99.99,1.0,HOBO +U30 +Weather +,2013-05-24 08:40:00,
2013-05-24 02:50:00,54.8,51.4,-100.00,West,278,3.4,6.3,88,0.00,,,-99.99,1.0,HOBO +U30 +Weather +,2013-05-24 08:50:00,
2013-05-24 02:54:00,54.9,51.5,-100.00,NNE,21,4.5,9.6,88,0.00,,,-99.99,1.0,HOBO +U30 +Weather +,2013-05-24 08:54:00,
2013-05-24 02:55:00,54.7,51.2,-100.00,WSW,241,2.9,7.4,87,0.00,,,-99.99,1.0,HOBO +U30 +Weather +,2013-05-24 08:55:00,
2013-05-24 03:00:00,54.6,51.1,-100.00,West,272,2.2,7.4,87,0.00,,,-99.99,1.0,HOBO +U30 +Weather +,2013-05-24 09:00:00,
2013-05-24 03:05:00,54.6,51.1,-100.00,WSW,251,6.7,9.6,87,0.00,,,-99.99,1.0,HOBO +U30 +Weather +,2013-05-24 09:05:00,
2013-05-24 03:10:00,54.8,51.4,-100.00,WSW,248,7.4,10.7,88,0.00,,,-99.99,1.0,HOBO +U30 +Weather +,2013-05-24 09:10:00,
2013-05-24 03:15:00,54.6,51.4,-100.00,WSW,258,6.7,10.7,89,0.00,,,-99.99,1.0,HOBO +U30 +Weather +,2013-05-24 09:15:00,
2013-05-24 03:20:00,54.6,51.4,-100.00,SW,236,5.6,8.9,89,0.00,,,-99.99,1.0,HOBO +U30 +Weather +,2013-05-24 09:20:00,
2013-05-24 03:25:00,54.5,51.5,-100.00,WSW,251,5.6,8.9,89,0.00,,,-99.99,1.0,HOBO +U30 +Weather +,2013-05-24 09:25:00,
2013-05-24 03:30:00,54.4,51.4,-100.00,WSW,253,6.7,11.9,89,0.00,,,-99.99,1.0,HOBO +U30 +Weather +,2013-05-24 09:30:00,
2013-05-24 03:35:00,54.5,51.4,-100.00,WSW,247,5.1,8.9,89,0.00,,,-99.99,1.0,HOBO +U30 +Weather +,2013-05-24 09:35:00,
2013-05-24 03:40:00,54.6,51.3,-100.00,West,264,4.5,9.6,88,0.00,,,-99.99,1.0,HOBO +U30 +Weather +,2013-05-24 09:40:00,
2013-05-24 03:45:00,54.7,51.2,-100.00,West,277,4.0,8.9,87,0.00,,,-99.99,1.0,HOBO +U30 +Weather +,2013-05-24 09:45:00,
2013-05-24 03:50:00,54.9,51.1,-100.00,WSW,240,7.8,10.7,86,0.00,,,-99.99,1.0,HOBO +U30 +Weather +,2013-05-24 09:50:00,
2013-05-24 03:55:00,55.1,50.6,-100.00,WSW,250,8.5,15.9,84,0.00,,,-99.99,1.0,HOBO +U30 +Weather +,2013-05-24 09:55:00,
2013-05-24 04:00:00,54.9,50.0,-100.00,West,265,6.7,11.9,83,0.00,,,-99.99,1.0,HOBO +U30 +Weather +,2013-05-24 10:00:00,
2013-05-24 04:05:00,54.7,49.9,-100.00,West,260,8.5,14.5,83,0.00,,,-99.99,1.0,HOBO +U30 +Weather +,2013-05-24 10:05:00,
2013-05-24 04:10:00,54.4,48.4,-100.00,WSW,250,10.1,16.3,80,0.00,,,-99.99,1.0,HOBO +U30 +Weather +,2013-05-24 10:10:00,
2013-05-24 04:15:00,54.0,47.7,-100.00,WSW,246,9.6,16.3,79,0.00,,,-99.99,1.0,HOBO +U30 +Weather +,2013-05-24 10:15:00,
2013-05-24 04:20:00,53.7,46.6,-100.00,WSW,247,10.1,15.2,76,0.00,,,-99.99,1.0,HOBO +U30 +Weather +,2013-05-24 10:20:00,
2013-05-24 04:25:00,53.2,45.3,-100.00,WSW,247,10.1,15.9,74,0.00,,,-99.99,1.0,HOBO +U30 +Weather +,2013-05-24 10:25:00,
2013-05-24 04:30:00,52.9,44.4,-100.00,WSW,246,9.6,17.0,72,0.00,,,-99.99,1.0,HOBO +U30 +Weather +,2013-05-24 10:30:00,
2013-05-24 04:35:00,52.6,43.3,-100.00,WSW,244,11.2,20.4,70,0.00,,,-99.99,1.0,HOBO +U30 +Weather +,2013-05-24 10:35:00,
2013-05-24 04:40:00,52.5,43.2,-100.00,WSW,246,11.2,19.7,70,0.00,,,-99.99,1.0,HOBO +U30 +Weather +,2013-05-24 10:40:00,
2013-05-24 04:50:00,52.6,43.2,-100.00,SW,226,7.8,13.4,70,0.00,,,-99.99,1.0,HOBO +U30 +Weather +,2013-05-24 10:50:00,
2013-05-24 04:51:00,52.5,43.1,-100.00,SW,236,10.7,18.6,70,0.00,,,-99.99,1.0,HOBO +U30 +Weather +,2013-05-24 10:51:00,
2013-05-24 04:55:00,52.7,43.2,-100.00,SW,226,5.6,11.9,70,0.00,,,-99.99,1.0,HOBO +U30 +Weather +,2013-05-24 10:55:00,
2013-05-24 05:00:00,52.7,43.5,-100.00,WSW,253,5.1,14.1,70,0.00,,,-99.99,1.0,HOBO +U30 +Weather +,2013-05-24 11:00:00,
2013-05-24 05:05:00,53.0,43.8,-100.00,NW,306,1.8,5.6,70,0.00,,,-99.99,1.0,HOBO +U30 +Weather +,2013-05-24 11:05:00,
2013-05-24 05:10:00,52.9,44.0,-100.00,NW,306,5.1,11.2,71,0.00,,,-99.99,1.0,HOBO +U30 +Weather +,2013-05-24 11:10:00,
2013-05-24 05:15:00,52.6,44.6,-100.00,West,277,5.6,14.1,74,0.00,,,-99.99,1.0,HOBO +U30 +Weather +,2013-05-24 11:15:00,
2013-05-24 05:20:00,52.5,45.2,-100.00,WNW,298,6.7,15.2,76,0.00,,,-99.99,1.0,HOBO +U30 +Weather +,2013-05-24 11:20:00,
2013-05-24 05:25:00,52.5,45.4,-100.00,WNW,300,1.8,6.3,76,0.00,,,-99.99,1.0,HOBO +U30 +Weather +,2013-05-24 11:25:00,
2013-05-24 05:30:00,52.6,45.5,-100.00,North,7,1.1,5.1,76,0.00,,,-99.99,1.0,HOBO +U30 +Weather +,2013-05-24 11:30:00,
2013-05-24 05:35:00,52.9,45.5,-100.00,NE,48,0.7,2.9,75,0.00,,,-99.99,1.0,HOBO +U30 +Weather +,2013-05-24 11:35:00,
2013-05-24 05:40:00,53.0,45.2,-100.00,SE,139,2.9,6.3,74,0.00,,,-99.99,1.0,HOBO +U30 +Weather +,2013-05-24 11:40:00,
2013-05-24 05:45:00,53.6,44.2,-100.00,NE,39,2.2,8.9,70,0.00,,,-99.99,1.0,HOBO +U30 +Weather +,2013-05-24 11:45:00,
2013-05-24 05:50:00,53.5,44.2,-100.00,South,178,2.2,6.3,70,0.00,,,-99.99,2.0,HOBO +U30 +Weather +,2013-05-24 11:50:00,
2013-05-24 05:55:00,53.7,43.2,-100.00,SW,218,2.9,7.4,67,0.00,,,-99.99,2.0,HOBO +U30 +Weather +,2013-05-24 11:55:00,
2013-05-24 06:00:00,53.7,42.0,-100.00,WSW,237,5.6,10.1,64,0.00,,,-99.99,4.0,HOBO +U30 +Weather +,2013-05-24 12:00:00,
2013-05-24 06:05:00,53.5,41.9,-100.00,WSW,250,6.3,11.9,64,0.00,,,-99.99,9.0,HOBO +U30 +Weather +,2013-05-24 12:05:00,
2013-05-24 06:10:00,53.4,41.9,-100.00,WSW,257,5.6,11.9,64,0.00,,,-99.99,14.0,HOBO +U30 +Weather +,2013-05-24 12:10:00,
2013-05-24 06:15:00,53.2,41.9,-100.00,West,268,4.5,8.9,65,0.00,,,-99.99,14.0,HOBO +U30 +Weather +,2013-05-24 12:15:00,
2013-05-24 06:20:00,53.1,42.4,-100.00,WSW,258,1.8,5.6,67,0.00,,,-99.99,19.0,HOBO +U30 +Weather +,2013-05-24 12:20:00,
2013-05-24 06:25:00,52.7,43.7,-100.00,NW,307,0.7,4.5,71,0.00,,,-99.99,21.0,HOBO +U30 +Weather +,2013-05-24 12:25:00,
2013-05-24 06:30:00,53.2,44.8,-100.00,NNW,333,2.9,5.6,72,0.00,,,-99.99,36.0,HOBO +U30 +Weather +,2013-05-24 12:30:00,
2013-05-24 06:35:00,53.0,44.7,-100.00,NNW,347,2.9,6.3,73,0.00,,,-99.99,46.0,HOBO +U30 +Weather +,2013-05-24 12:35:00,
2013-05-24 06:49:00,52.0,44.7,-100.00,NW,313,1.1,4.0,76,0.00,,,-99.99,46.0,HOBO +U30 +Weather +,2013-05-24 12:49:00,
2013-05-24 06:50:00,52.2,45.3,-100.00,WNW,299,0.0,1.8,77,0.00,,,-99.99,48.0,HOBO +U30 +Weather +,2013-05-24 12:50:00,
2013-05-24 06:55:00,52.2,45.0,-100.00,WNW,299,0.0,1.1,76,0.00,,,-99.99,66.0,HOBO +U30 +Weather +,2013-05-24 12:55:00,
2013-05-24 07:00:00,52.4,45.3,-100.00,WNW,299,0.0,0.0,76,0.00,,,-99.99,93.0,HOBO +U30 +Weather +,2013-05-24 13:00:00,
2013-05-24 07:05:00,52.9,45.9,-100.00,WNW,299,0.0,0.0,76,0.00,,,-99.99,99.0,HOBO +U30 +Weather +,2013-05-24 13:05:00,
2013-05-24 07:10:00,52.5,45.7,-100.00,WNW,292,0.0,2.9,77,0.00,,,-99.99,89.0,HOBO +U30 +Weather +,2013-05-24 13:10:00,
2013-05-24 07:15:00,53.0,45.5,-100.00,West,275,0.0,0.0,75,0.00,,,-99.99,96.0,HOBO +U30 +Weather +,2013-05-24 13:15:00,
2013-05-24 07:20:00,53.1,45.2,-100.00,West,275,0.0,0.0,74,0.00,,,-99.99,74.0,HOBO +U30 +Weather +,2013-05-24 13:20:00,
2013-05-24 07:25:00,53.0,44.5,-100.00,South,183,0.0,1.8,72,0.00,,,-99.99,68.0,HOBO +U30 +Weather +,2013-05-24 13:25:00,
2013-05-24 07:30:00,53.3,44.4,-100.00,SSE,147,0.0,0.0,71,0.00,,,-99.99,104.0,HOBO +U30 +Weather +,2013-05-24 13:30:00,
2013-05-24 07:35:00,53.9,44.6,-100.00,SE,142,0.0,0.0,70,0.00,,,-99.99,68.0,HOBO +U30 +Weather +,2013-05-24 13:35:00,
2013-05-24 07:45:00,54.5,43.3,-100.00,WNW,284,0.7,2.9,65,0.00,,,-99.99,321.0,HOBO +U30 +Weather +,2013-05-24 13:45:00,
2013-05-24 07:47:00,53.4,42.8,-100.00,NNW,337,0.7,4.0,67,0.00,,,-99.99,76.0,HOBO +U30 +Weather +,2013-05-24 13:47:00,
2013-05-24 07:50:00,55.0,43.5,-100.00,WSW,239,0.7,2.9,65,0.00,,,-99.99,337.0,HOBO +U30 +Weather +,2013-05-24 13:50:00,
2013-05-24 07:55:00,55.2,43.1,-100.00,WSW,240,1.8,4.5,63,0.00,,,-99.99,349.0,HOBO +U30 +Weather +,2013-05-24 13:55:00,
2013-05-24 08:00:00,56.3,43.5,-100.00,West,272,0.7,4.0,61,0.00,,,-99.99,363.0,HOBO +U30 +Weather +,2013-05-24 14:00:00,
2013-05-24 08:05:00,56.8,42.9,-100.00,SSE,168,1.8,3.4,59,0.00,,,-99.99,372.0,HOBO +U30 +Weather +,2013-05-24 14:05:00,
2013-05-24 08:10:00,56.6,41.9,-100.00,South,181,1.8,6.3,57,0.00,,,-99.99,386.0,HOBO +U30 +Weather +,2013-05-24 14:10:00,
2013-05-24 08:15:00,57.6,42.1,-100.00,SSW,201,0.7,5.1,56,0.00,,,-99.99,396.0,HOBO +U30 +Weather +,2013-05-24 14:15:00,
2013-05-24 08:20:00,57.2,42.3,-100.00,South,171,2.2,4.5,57,0.00,,,-99.99,409.0,HOBO +U30 +Weather +,2013-05-24 14:20:00,
2013-05-24 08:25:00,56.1,41.6,-100.00,South,171,5.1,7.8,58,0.00,,,-99.99,422.0,HOBO +U30 +Weather +,2013-05-24 14:25:00,
2013-05-24 08:30:00,56.4,41.2,-100.00,SSW,201,6.7,10.7,56,0.00,,,-99.99,436.0,HOBO +U30 +Weather +,2013-05-24 14:30:00,
2013-05-24 08:35:00,57.3,41.6,-100.00,SSW,209,5.1,9.6,55,0.00,,,-99.99,451.0,HOBO +U30 +Weather +,2013-05-24 14:35:00,
2013-05-24 08:45:00,57.5,40.1,-100.00,West,260,4.5,10.1,52,0.00,,,-99.99,477.0,HOBO +U30 +Weather +,2013-05-24 14:45:00,
2013-05-24 08:48:00,57.6,41.0,-100.00,SW,234,2.9,5.6,53,0.00,,,-99.99,464.0,HOBO +U30 +Weather +,2013-05-24 14:48:00,
2013-05-24 08:50:00,57.8,40.5,-100.00,West,275,5.6,13.4,52,0.00,,,-99.99,489.0,HOBO +U30 +Weather +,2013-05-24 14:50:00,
2013-05-24 08:55:00,57.3,38.8,-100.00,West,272,10.1,14.5,50,0.00,,,-99.99,504.0,HOBO +U30 +Weather +,2013-05-24 14:55:00,
2013-05-24 09:00:00,58.5,39.8,-100.00,WSW,254,6.3,10.7,49,0.00,,,-99.99,516.0,HOBO +U30 +Weather +,2013-05-24 15:00:00,
2013-05-24 09:05:00,58.4,37.9,-100.00,West,274,8.9,14.1,46,0.00,,,-99.99,528.0,HOBO +U30 +Weather +,2013-05-24 15:05:00,
2013-05-24 09:10:00,57.8,38.7,-100.00,West,271,8.5,15.2,48,0.00,,,-99.99,538.0,HOBO +U30 +Weather +,2013-05-24 15:10:00,
2013-05-24 09:15:00,58.1,40.4,-100.00,West,265,7.8,14.5,51,0.00,,,-99.99,548.0,HOBO +U30 +Weather +,2013-05-24 15:15:00,
2013-05-24 09:20:00,57.7,37.1,-100.00,WSW,258,11.2,17.0,46,0.00,,,-99.99,561.0,HOBO +U30 +Weather +,2013-05-24 15:20:00,
2013-05-24 09:25:00,57.6,37.4,-100.00,West,271,9.6,15.2,46,0.00,,,-99.99,573.0,HOBO +U30 +Weather +,2013-05-24 15:25:00,
2013-05-24 09:30:00,58.0,37.4,-100.00,WSW,250,8.9,14.1,46,0.00,,,-99.99,584.0,HOBO +U30 +Weather +,2013-05-24 15:30:00,
2013-05-24 09:35:00,58.3,37.8,-100.00,WSW,251,9.6,15.9,46,0.00,,,-99.99,598.0,HOBO +U30 +Weather +,2013-05-24 15:35:00,
2013-05-24 09:45:00,57.8,37.3,-100.00,WSW,253,11.2,19.2,46,0.00,,,-99.99,608.0,HOBO +U30 +Weather +,2013-05-24 15:45:00,
2013-05-24 09:50:00,58.8,37.8,-100.00,WSW,256,8.5,17.0,45,0.00,,,-99.99,632.0,HOBO +U30 +Weather +,2013-05-24 15:50:00,
2013-05-24 09:55:00,58.5,36.7,-100.00,WSW,251,11.9,17.4,43,0.00,,,-99.99,642.0,HOBO +U30 +Weather +,2013-05-24 15:55:00,
2013-05-24 10:00:00,59.4,37.4,-100.00,WSW,243,10.7,15.9,43,0.00,,,-99.99,654.0,HOBO +U30 +Weather +,2013-05-24 16:00:00,
2013-05-24 10:05:00,59.7,37.2,-100.00,WSW,251,9.6,16.3,43,0.00,,,-99.99,668.0,HOBO +U30 +Weather +,2013-05-24 16:05:00,
2013-05-24 10:10:00,60.7,37.5,-100.00,WSW,250,8.9,17.0,42,0.00,,,-99.99,677.0,HOBO +U30 +Weather +,2013-05-24 16:10:00,
2013-05-24 10:15:00,60.7,36.9,-100.00,West,268,10.7,18.6,40,0.00,,,-99.99,687.0,HOBO +U30 +Weather +,2013-05-24 16:15:00,
2013-05-24 10:20:00,60.8,35.1,-100.00,WSW,256,12.3,18.6,38,0.00,,,-99.99,699.0,HOBO +U30 +Weather +,2013-05-24 16:20:00,
2013-05-24 10:25:00,61.2,33.8,-100.00,SW,226,13.0,22.6,35,0.00,,,-99.99,712.0,HOBO +U30 +Weather +,2013-05-24 16:25:00,
2013-05-24 10:30:00,60.6,35.4,-100.00,WSW,247,15.2,23.7,38,0.00,,,-99.99,719.0,HOBO +U30 +Weather +,2013-05-24 16:30:00,
2013-05-24 10:44:00,60.9,35.5,-100.00,WSW,248,15.2,23.7,38,0.00,,,-99.99,727.0,HOBO +U30 +Weather +,2013-05-24 16:44:00,
2013-05-24 10:45:00,61.6,34.6,-100.00,WSW,256,11.2,16.3,36,0.00,,,-99.99,743.0,HOBO +U30 +Weather +,2013-05-24 16:45:00,
2013-05-24 10:50:00,60.8,34.8,-100.00,WSW,254,14.1,22.6,37,0.00,,,-99.99,753.0,HOBO +U30 +Weather +,2013-05-24 16:50:00,
2013-05-24 10:55:00,61.8,33.5,-100.00,WSW,247,12.3,19.7,34,0.00,,,-99.99,764.0,HOBO +U30 +Weather +,2013-05-24 16:55:00,
2013-05-24 11:00:00,62.1,33.2,-100.00,WSW,246,12.3,19.2,33,0.00,,,-99.99,773.0,HOBO +U30 +Weather +,2013-05-24 17:00:00,
2013-05-24 11:05:00,63.0,30.0,-100.00,WSW,254,8.9,16.3,28,0.00,,,-99.99,778.0,HOBO +U30 +Weather +,2013-05-24 17:05:00,
2013-05-24 11:10:00,62.9,31.9,-100.00,WSW,248,8.9,18.6,31,0.00,,,-99.99,781.0,HOBO +U30 +Weather +,2013-05-24 17:10:00,
2013-05-24 11:15:00,63.1,27.7,-100.00,WSW,239,7.4,22.6,26,0.00,,,-99.99,793.0,HOBO +U30 +Weather +,2013-05-24 17:15:00,
2013-05-24 11:20:00,62.0,29.3,-100.00,West,274,10.7,21.5,28,0.00,,,-99.99,798.0,HOBO +U30 +Weather +,2013-05-24 17:20:00,
2013-05-24 11:25:00,63.6,30.0,-100.00,WSW,247,7.4,16.3,28,0.00,,,-99.99,803.0,HOBO +U30 +Weather +,2013-05-24 17:25:00,
2013-05-24 11:30:00,62.1,28.8,-100.00,WSW,248,13.4,20.4,28,0.00,,,-99.99,811.0,HOBO +U30 +Weather +,2013-05-24 17:30:00,
2013-05-24 11:40:00,63.4,30.6,-100.00,SW,222,11.2,17.4,28,0.00,,,-99.99,822.0,HOBO +U30 +Weather +,2013-05-24 17:40:00,
2013-05-24 11:42:00,64.3,30.6,-100.00,SW,236,6.3,13.4,28,0.00,,,-99.99,817.0,HOBO +U30 +Weather +,2013-05-24 17:42:00,
2013-05-24 11:45:00,62.4,28.3,-100.00,WSW,243,11.2,16.3,27,0.00,,,-99.99,828.0,HOBO +U30 +Weather +,2013-05-24 17:45:00,
2013-05-24 11:50:00,64.0,30.1,-100.00,West,265,7.4,15.9,27,0.00,,,-99.99,831.0,HOBO +U30 +Weather +,2013-05-24 17:50:00,
2013-05-24 11:55:00,62.7,29.0,-100.00,SW,236,10.7,18.6,27,0.00,,,-99.99,838.0,HOBO +U30 +Weather +,2013-05-24 17:55:00,
2013-05-24 12:00:00,64.7,29.1,-100.00,SW,222,10.1,19.2,26,0.00,,,-99.99,843.0,HOBO +U30 +Weather +,2013-05-24 18:00:00,
2013-05-24 12:05:00,63.1,28.2,-100.00,WSW,239,11.9,20.4,26,0.00,,,-99.99,851.0,HOBO +U30 +Weather +,2013-05-24 18:05:00,
2013-05-24 12:10:00,63.5,28.6,-100.00,SW,233,8.9,17.0,26,0.00,,,-99.99,851.0,HOBO +U30 +Weather +,2013-05-24 18:10:00,
2013-05-24 12:15:00,63.6,27.6,-100.00,WSW,244,8.9,18.6,25,0.00,,,-99.99,852.0,HOBO +U30 +Weather +,2013-05-24 18:15:00,
2013-05-24 12:20:00,63.3,28.2,-100.00,West,265,10.7,18.6,26,0.00,,,-99.99,859.0,HOBO +U30 +Weather +,2013-05-24 18:20:00,
2013-05-24 12:25:00,63.4,28.3,-100.00,West,279,7.8,14.1,26,0.00,,,-99.99,864.0,HOBO +U30 +Weather +,2013-05-24 18:25:00,
2013-05-24 12:30:00,65.1,29.4,-100.00,West,271,6.3,14.1,26,0.00,,,-99.99,864.0,HOBO +U30 +Weather +,2013-05-24 18:30:00,
2013-05-24 12:40:00,64.6,29.6,-100.00,West,270,8.9,15.9,26,0.00,,,-99.99,874.0,HOBO +U30 +Weather +,2013-05-24 18:40:00,
2013-05-24 12:42:00,64.4,28.7,-100.00,West,279,8.9,16.3,25,0.00,,,-99.99,869.0,HOBO +U30 +Weather +,2013-05-24 18:42:00,
2013-05-24 12:45:00,64.9,29.7,-100.00,West,271,8.5,16.3,26,0.00,,,-99.99,874.0,HOBO +U30 +Weather +,2013-05-24 18:45:00,
2013-05-24 12:50:00,65.2,29.3,-100.00,West,274,6.7,11.9,25,0.00,,,-99.99,876.0,HOBO +U30 +Weather +,2013-05-24 18:50:00,
2013-05-24 12:55:00,65.4,26.9,-100.00,West,260,10.1,17.0,23,0.00,,,-99.99,877.0,HOBO +U30 +Weather +,2013-05-24 18:55:00,
2013-05-24 13:00:00,66.3,27.6,-100.00,SW,234,6.7,14.1,23,0.00,,,-99.99,877.0,HOBO +U30 +Weather +,2013-05-24 19:00:00,
2013-05-24 13:05:00,65.1,28.0,-100.00,WSW,251,7.4,16.3,24,0.00,,,-99.99,878.0,HOBO +U30 +Weather +,2013-05-24 19:05:00,
2013-05-24 13:10:00,66.8,30.3,-100.00,West,267,5.1,12.3,25,0.00,,,-99.99,874.0,HOBO +U30 +Weather +,2013-05-24 19:10:00,
2013-05-24 13:15:00,65.1,28.8,-100.00,WSW,248,7.4,13.4,25,0.00,,,-99.99,877.0,HOBO +U30 +Weather +,2013-05-24 19:15:00,
2013-05-24 13:20:00,66.0,28.4,-100.00,WSW,257,7.8,15.2,24,0.00,,,-99.99,877.0,HOBO +U30 +Weather +,2013-05-24 19:20:00,
2013-05-24 13:25:00,65.7,28.1,-100.00,WSW,239,8.9,16.3,24,0.00,,,-99.99,877.0,HOBO +U30 +Weather +,2013-05-24 19:25:00,
2013-05-24 13:30:00,66.2,29.3,-100.00,WSW,237,5.1,9.6,24,0.00,,,-99.99,872.0,HOBO +U30 +Weather +,2013-05-24 19:30:00,
2013-05-24 13:40:00,66.0,28.0,-100.00,West,281,8.5,17.4,23,0.00,,,-99.99,869.0,HOBO +U30 +Weather +,2013-05-24 19:40:00,
2013-05-24 13:45:00,67.2,29.3,-100.00,West,275,7.4,14.1,24,0.00,,,-99.99,862.0,HOBO +U30 +Weather +,2013-05-24 19:45:00,
2013-05-24 13:50:00,66.6,28.2,-100.00,WSW,250,7.8,13.0,23,0.00,,,-99.99,859.0,HOBO +U30 +Weather +,2013-05-24 19:50:00,
2013-05-24 13:55:00,67.2,29.5,-100.00,WSW,244,6.3,11.9,24,0.00,,,-99.99,858.0,HOBO +U30 +Weather +,2013-05-24 19:55:00,
2013-05-24 14:00:00,66.8,27.9,-100.00,SW,223,7.8,16.3,23,0.00,,,-99.99,853.0,HOBO +U30 +Weather +,2013-05-24 20:00:00,
2013-05-24 14:05:00,66.9,28.7,-100.00,West,270,10.1,17.0,23,0.00,,,-99.99,848.0,HOBO +U30 +Weather +,2013-05-24 20:05:00,
2013-05-24 14:10:00,66.9,28.1,-100.00,WSW,246,7.4,13.4,23,0.00,,,-99.99,843.0,HOBO +U30 +Weather +,2013-05-24 20:10:00,
2013-05-24 14:15:00,67.7,29.2,-100.00,WSW,256,6.3,13.4,23,0.00,,,-99.99,839.0,HOBO +U30 +Weather +,2013-05-24 20:15:00,
2013-05-24 14:20:00,67.2,28.7,-100.00,WSW,248,10.7,16.3,23,0.00,,,-99.99,836.0,HOBO +U30 +Weather +,2013-05-24 20:20:00,
2013-05-24 14:25:00,67.2,29.6,-100.00,WSW,257,7.8,15.9,24,0.00,,,-99.99,828.0,HOBO +U30 +Weather +,2013-05-24 20:25:00,
2013-05-24 14:38:00,68.6,28.8,-100.00,WSW,247,6.7,13.4,22,0.00,,,-99.99,822.0,HOBO +U30 +Weather +,2013-05-24 20:38:00,
2013-05-24 14:40:00,68.4,31.1,-100.00,West,275,6.3,15.2,24,0.00,,,-99.99,809.0,HOBO +U30 +Weather +,2013-05-24 20:40:00,
2013-05-24 14:45:00,69.1,29.0,-100.00,West,279,6.3,11.9,22,0.00,,,-99.99,802.0,HOBO +U30 +Weather +,2013-05-24 20:45:00,
2013-05-24 14:50:00,69.3,31.1,-100.00,WNW,284,5.1,10.7,24,0.00,,,-99.99,793.0,HOBO +U30 +Weather +,2013-05-24 20:50:00,
2013-05-24 14:55:00,68.9,28.6,-100.00,West,264,5.6,14.1,22,0.00,,,-99.99,779.0,HOBO +U30 +Weather +,2013-05-24 20:55:00,
2013-05-24 15:00:00,69.1,29.8,-100.00,West,268,5.6,9.6,23,0.00,,,-99.99,774.0,HOBO +U30 +Weather +,2013-05-24 21:00:00,
2013-05-24 15:05:00,69.9,28.0,-100.00,WSW,254,6.3,13.4,20,0.00,,,-99.99,771.0,HOBO +U30 +Weather +,2013-05-24 21:05:00,
2013-05-24 15:10:00,69.0,28.0,-100.00,WSW,247,6.7,12.3,21,0.00,,,-99.99,763.0,HOBO +U30 +Weather +,2013-05-24 21:10:00,
2013-05-24 15:15:00,69.8,29.9,-100.00,WSW,256,6.3,12.3,22,0.00,,,-99.99,753.0,HOBO +U30 +Weather +,2013-05-24 21:15:00,
2013-05-24 15:20:00,70.0,28.0,-100.00,West,261,5.1,10.7,20,0.00,,,-99.99,751.0,HOBO +U30 +Weather +,2013-05-24 21:20:00,
2013-05-24 15:25:00,70.2,30.2,-100.00,WSW,239,6.7,11.2,22,0.00,,,-99.99,744.0,HOBO +U30 +Weather +,2013-05-24 21:25:00,
2013-05-24 15:35:00,71.8,30.1,-100.00,SSW,192,2.2,6.3,21,0.00,,,-99.99,723.0,HOBO +U30 +Weather +,2013-05-24 21:35:00,
2013-05-24 15:37:00,69.9,27.5,-100.00,SW,218,5.6,11.2,20,0.00,,,-99.99,734.0,HOBO +U30 +Weather +,2013-05-24 21:37:00,
2013-05-24 15:40:00,69.8,29.5,-100.00,West,264,5.1,11.2,22,0.00,,,-99.99,716.0,HOBO +U30 +Weather +,2013-05-24 21:40:00,
2013-05-24 15:45:00,70.5,28.3,-100.00,WSW,243,4.5,10.1,20,0.00,,,-99.99,707.0,HOBO +U30 +Weather +,2013-05-24 21:45:00,
2013-05-24 15:50:00,71.6,30.8,-100.00,SW,220,2.2,6.3,22,0.00,,,-99.99,698.0,HOBO +U30 +Weather +,2013-05-24 21:50:00,
2013-05-24 15:55:00,71.1,28.2,-100.00,NW,309,3.4,8.5,20,0.00,,,-99.99,689.0,HOBO +U30 +Weather +,2013-05-24 21:55:00,
2013-05-24 16:00:00,71.7,30.7,-100.00,NW,314,2.9,6.3,21,0.00,,,-99.99,681.0,HOBO +U30 +Weather +,2013-05-24 22:00:00,
2013-05-24 16:05:00,72.0,28.9,-100.00,NNE,25,2.9,7.4,20,0.00,,,-99.99,669.0,HOBO +U30 +Weather +,2013-05-24 22:05:00,
2013-05-24 16:10:00,71.2,28.9,-100.00,North,351,4.5,9.6,20,0.00,,,-99.99,659.0,HOBO +U30 +Weather +,2013-05-24 22:10:00,
2013-05-24 16:15:00,71.4,27.2,-100.00,NW,324,5.1,10.1,19,0.00,,,-99.99,649.0,HOBO +U30 +Weather +,2013-05-24 22:15:00,
2013-05-24 16:20:00,71.7,28.9,-100.00,WSW,253,3.4,8.9,20,0.00,,,-99.99,639.0,HOBO +U30 +Weather +,2013-05-24 22:20:00,
2013-05-24 16:25:00,72.9,28.0,-100.00,SW,230,0.7,4.5,18,0.00,,,-99.99,629.0,HOBO +U30 +Weather +,2013-05-24 22:25:00,
2013-05-24 16:35:00,73.2,28.9,-100.00,WSW,247,1.8,5.1,19,0.00,,,-99.99,608.0,HOBO +U30 +Weather +,2013-05-24 22:35:00,
2013-05-24 16:36:00,71.4,27.3,-100.00,NW,313,2.2,7.4,19,0.00,,,-99.99,618.0,HOBO +U30 +Weather +,2013-05-24 22:36:00,
2013-05-24 16:40:00,73.5,28.4,-100.00,NNE,15,1.8,4.5,18,0.00,,,-99.99,597.0,HOBO +U30 +Weather +,2013-05-24 22:40:00,
2013-05-24 16:45:00,72.6,27.8,-100.00,NNE,18,2.9,6.7,18,0.00,,,-99.99,584.0,HOBO +U30 +Weather +,2013-05-24 22:45:00,
2013-05-24 16:50:00,71.7,28.9,-100.00,ENE,58,5.1,11.2,20,0.00,,,-99.99,571.0,HOBO +U30 +Weather +,2013-05-24 22:50:00,
2013-05-24 16:55:00,72.0,29.0,-100.00,NE,52,4.5,10.1,20,0.00,,,-99.99,559.0,HOBO +U30 +Weather +,2013-05-24 22:55:00,
2013-05-24 17:00:00,72.2,28.0,-100.00,NNE,24,4.0,7.8,19,0.00,,,-99.99,548.0,HOBO +U30 +Weather +,2013-05-24 23:00:00,
2013-05-24 17:05:00,72.6,28.3,-100.00,NNE,31,3.4,8.9,19,0.00,,,-99.99,538.0,HOBO +U30 +Weather +,2013-05-24 23:05:00,
2013-05-24 17:10:00,72.2,28.7,-100.00,ENE,59,2.9,7.8,19,0.00,,,-99.99,526.0,HOBO +U30 +Weather +,2013-05-24 23:10:00,
2013-05-24 17:15:00,72.1,30.3,-100.00,ESE,117,4.5,10.1,21,0.00,,,-99.99,516.0,HOBO +U30 +Weather +,2013-05-24 23:15:00,
2013-05-24 17:20:00,72.3,31.3,-100.00,NE,35,4.0,7.8,22,0.00,,,-99.99,502.0,HOBO +U30 +Weather +,2013-05-24 23:20:00,
2013-05-24 17:34:00,71.8,29.2,-100.00,NE,53,3.4,10.7,20,0.00,,,-99.99,487.0,HOBO +U30 +Weather +,2013-05-24 23:34:00,
2013-05-24 17:35:00,72.2,29.6,-100.00,NE,55,6.3,14.1,20,0.00,,,-99.99,463.0,HOBO +U30 +Weather +,2013-05-24 23:35:00,
2013-05-24 17:40:00,72.1,29.9,-100.00,ENE,69,5.1,11.9,20,0.00,,,-99.99,452.0,HOBO +U30 +Weather +,2013-05-24 23:40:00,
2013-05-24 17:45:00,71.4,29.3,-100.00,ENE,58,11.9,16.3,20,0.00,,,-99.99,438.0,HOBO +U30 +Weather +,2013-05-24 23:45:00,
2013-05-24 17:50:00,72.1,29.6,-100.00,NE,48,8.9,12.3,20,0.00,,,-99.99,424.0,HOBO +U30 +Weather +,2013-05-24 23:50:00,
2013-05-24 17:55:00,71.0,29.1,-100.00,NE,49,8.9,12.3,21,0.00,,,-99.99,412.0,HOBO +U30 +Weather +,2013-05-24 23:55:00,
2013-05-24 18:00:00,71.2,29.6,-100.00,NE,45,8.5,11.9,21,0.00,,,-99.99,392.0,HOBO +U30 +Weather +,2013-05-25 00:00:00,
2013-05-24 18:05:00,71.3,29.6,-100.00,NE,52,6.7,11.9,21,0.00,,,-99.99,381.0,HOBO +U30 +Weather +,2013-05-25 00:05:00,
2013-05-24 18:10:00,72.1,30.3,-100.00,NNE,32,6.3,12.3,21,0.00,,,-99.99,371.0,HOBO +U30 +Weather +,2013-05-25 00:10:00,
2013-05-24 18:15:00,71.9,29.9,-100.00,NNE,17,8.5,12.3,21,0.00,,,-99.99,358.0,HOBO +U30 +Weather +,2013-05-25 00:15:00,
2013-05-24 18:20:00,71.9,30.6,-100.00,NNE,22,7.8,12.3,21,0.00,,,-99.99,317.0,HOBO +U30 +Weather +,2013-05-25 00:20:00,
2013-05-24 18:30:00,71.2,30.4,-100.00,NNE,29,9.6,14.5,22,0.00,,,-99.99,311.0,HOBO +U30 +Weather +,2013-05-25 00:30:00,
2013-05-24 18:33:00,71.3,30.5,-100.00,NNE,31,9.6,13.4,22,0.00,,,-99.99,334.0,HOBO +U30 +Weather +,2013-05-25 00:33:00,
2013-05-24 18:35:00,72.2,31.0,-100.00,NNE,17,7.8,13.4,21,0.00,,,-99.99,274.0,HOBO +U30 +Weather +,2013-05-25 00:35:00,
2013-05-24 18:40:00,71.1,30.6,-100.00,NNE,29,8.9,14.5,22,0.00,,,-99.99,281.0,HOBO +U30 +Weather +,2013-05-25 00:40:00,
2013-05-24 18:45:00,71.7,31.5,-100.00,NNE,17,9.6,14.5,22,0.00,,,-99.99,262.0,HOBO +U30 +Weather +,2013-05-25 00:45:00,
2013-05-24 18:50:00,71.6,31.4,-100.00,NNE,21,8.9,13.0,22,0.00,,,-99.99,247.0,HOBO +U30 +Weather +,2013-05-25 00:50:00,
2013-05-24 18:55:00,70.8,31.4,-100.00,NNE,31,7.8,14.1,23,0.00,,,-99.99,188.0,HOBO +U30 +Weather +,2013-05-25 00:55:00,
2013-05-24 19:00:00,71.0,31.4,-100.00,NNE,21,9.6,14.1,23,0.00,,,-99.99,212.0,HOBO +U30 +Weather +,2013-05-25 01:00:00,
2013-05-24 19:05:00,70.5,31.1,-100.00,NNE,21,11.9,16.3,23,0.00,,,-99.99,136.0,HOBO +U30 +Weather +,2013-05-25 01:05:00,
2013-05-24 19:10:00,70.4,31.8,-100.00,NE,35,9.6,13.4,23,0.00,,,-99.99,146.0,HOBO +U30 +Weather +,2013-05-25 01:10:00,
2013-05-24 19:15:00,70.4,31.8,-100.00,NNE,27,10.1,14.5,23,0.00,,,-99.99,138.0,HOBO +U30 +Weather +,2013-05-25 01:15:00,
2013-05-24 19:20:00,70.3,32.5,-100.00,NNE,28,9.6,14.5,24,0.00,,,-99.99,129.0,HOBO +U30 +Weather +,2013-05-25 01:20:00,
2013-05-24 19:30:00,70.2,32.7,-100.00,NE,48,12.3,16.3,24,0.00,,,-99.99,128.0,HOBO +U30 +Weather +,2013-05-25 01:30:00,
2013-05-24 19:34:00,70.4,31.9,-100.00,NE,45,10.1,14.5,24,0.00,,,-99.99,148.0,HOBO +U30 +Weather +,2013-05-25 01:34:00,
2013-05-24 19:35:00,70.2,33.3,-100.00,NE,45,6.7,12.3,25,0.00,,,-99.99,57.0,HOBO +U30 +Weather +,2013-05-25 01:35:00,
2013-05-24 19:40:00,70.1,31.5,-100.00,NE,42,9.6,14.1,23,0.00,,,-99.99,86.0,HOBO +U30 +Weather +,2013-05-25 01:40:00,
2013-05-24 19:45:00,69.8,30.7,-100.00,NE,42,11.2,15.2,23,0.00,,,-99.99,54.0,HOBO +U30 +Weather +,2013-05-25 01:45:00,
2013-05-24 19:50:00,69.5,31.4,-100.00,NE,49,9.6,14.1,24,0.00,,,-99.99,32.0,HOBO +U30 +Weather +,2013-05-25 01:50:00,
2013-05-24 19:55:00,69.3,31.1,-100.00,NE,46,7.8,11.2,24,0.00,,,-99.99,24.0,HOBO +U30 +Weather +,2013-05-25 01:55:00,
2013-05-24 20:00:00,69.1,31.9,-100.00,NE,44,8.5,11.9,25,0.00,,,-99.99,24.0,HOBO +U30 +Weather +,2013-05-25 02:00:00,
2013-05-24 20:05:00,68.1,34.3,-100.00,NNE,17,6.3,10.1,28,0.00,,,-99.99,19.0,HOBO +U30 +Weather +,2013-05-25 02:05:00,
2013-05-24 20:10:00,67.7,34.7,-100.00,NNE,20,7.4,11.2,29,0.00,,,-99.99,17.0,HOBO +U30 +Weather +,2013-05-25 02:10:00,
2013-05-24 20:15:00,67.5,34.8,-100.00,NNE,18,6.3,9.6,29,0.00,,,-99.99,16.0,HOBO +U30 +Weather +,2013-05-25 02:15:00,
2013-05-24 20:20:00,67.5,34.7,-100.00,NNE,25,6.3,9.6,29,0.00,,,-99.99,19.0,HOBO +U30 +Weather +,2013-05-25 02:20:00,
2013-05-24 20:30:00,67.4,34.6,-100.00,NNE,29,7.8,10.7,29,0.00,,,-99.99,11.0,HOBO +U30 +Weather +,2013-05-25 02:30:00,
2013-05-24 20:35:00,66.8,34.8,-100.00,NNE,18,6.7,10.7,30,0.00,,,-99.99,8.0,HOBO +U30 +Weather +,2013-05-25 02:35:00,
2013-05-24 20:40:00,66.5,35.0,-100.00,NNE,20,6.3,8.9,31,0.00,,,-99.99,7.0,HOBO +U30 +Weather +,2013-05-25 02:40:00,
2013-05-24 20:45:00,66.5,35.0,-100.00,NNE,28,6.7,11.2,31,0.00,,,-99.99,3.0,HOBO +U30 +Weather +,2013-05-25 02:45:00,
2013-05-24 20:50:00,66.3,35.4,-100.00,NNE,32,5.6,8.9,31,0.00,,,-99.99,2.0,HOBO +U30 +Weather +,2013-05-25 02:50:00,
2013-05-24 20:55:00,66.0,35.5,-100.00,NNE,29,5.1,7.8,32,0.00,,,-99.99,1.0,HOBO +U30 +Weather +,2013-05-25 02:55:00,
2013-05-24 21:00:00,65.7,35.6,-100.00,NNE,28,6.3,8.9,32,0.00,,,-99.99,1.0,HOBO +U30 +Weather +,2013-05-25 03:00:00,
2013-05-24 21:05:00,65.5,35.5,-100.00,NNE,25,6.3,8.9,32,0.00,,,-99.99,1.0,HOBO +U30 +Weather +,2013-05-25 03:05:00,
2013-05-24 21:10:00,65.4,35.5,-100.00,NNE,25,4.5,7.8,32,0.00,,,-99.99,1.0,HOBO +U30 +Weather +,2013-05-25 03:10:00,
2013-05-24 21:15:00,65.3,34.7,-100.00,NNE,22,5.6,9.6,32,0.00,,,-99.99,1.0,HOBO +U30 +Weather +,2013-05-25 03:15:00,
2013-05-24 21:29:00,65.3,34.5,-100.00,NNE,14,6.7,12.3,31,0.00,,,-99.99,1.0,HOBO +U30 +Weather +,2013-05-25 03:29:00,
2013-05-24 21:30:00,63.5,35.9,-100.00,North,1,4.5,6.3,35,0.00,,,-99.99,1.0,HOBO +U30 +Weather +,2013-05-25 03:30:00,
2013-05-24 21:35:00,63.1,36.1,-100.00,North,7,4.0,6.3,36,0.00,,,-99.99,1.0,HOBO +U30 +Weather +,2013-05-25 03:35:00,
2013-05-24 21:40:00,63.0,35.9,-100.00,North,10,4.0,6.3,36,0.00,,,-99.99,1.0,HOBO +U30 +Weather +,2013-05-25 03:40:00,
2013-05-24 21:45:00,63.0,35.7,-100.00,NNE,14,5.1,7.8,36,0.00,,,-99.99,1.0,HOBO +U30 +Weather +,2013-05-25 03:45:00,
2013-05-24 21:50:00,63.0,35.9,-100.00,NNE,18,4.5,6.7,36,0.00,,,-99.99,1.0,HOBO +U30 +Weather +,2013-05-25 03:50:00,
2013-05-24 21:55:00,63.0,36.0,-100.00,NNE,22,4.0,6.3,36,0.00,,,-99.99,1.0,HOBO +U30 +Weather +,2013-05-25 03:55:00,
2013-05-24 22:00:00,63.3,35.9,-100.00,NNE,32,4.0,6.7,36,0.00,,,-99.99,1.0,HOBO +U30 +Weather +,2013-05-25 04:00:00,
2013-05-24 22:05:00,63.1,35.7,-100.00,NNE,25,4.5,7.4,35,0.00,,,-99.99,1.0,HOBO +U30 +Weather +,2013-05-25 04:05:00,
2013-05-24 22:10:00,62.6,35.6,-100.00,North,11,4.0,6.7,36,0.00,,,-99.99,1.0,HOBO +U30 +Weather +,2013-05-25 04:10:00,
2013-05-24 22:15:00,62.3,36.0,-100.00,North,7,4.0,5.6,37,0.00,,,-99.99,1.0,HOBO +U30 +Weather +,2013-05-25 04:15:00,
2013-05-24 22:25:00,62.0,35.7,-100.00,North,354,5.1,7.8,37,0.00,,,-99.99,1.0,HOBO +U30 +Weather +,2013-05-25 04:25:00,
2013-05-24 22:28:00,62.2,35.8,-100.00,NNE,14,2.9,5.1,37,0.00,,,-99.99,1.0,HOBO +U30 +Weather +,2013-05-25 04:28:00,
2013-05-24 22:30:00,61.8,35.5,-100.00,North,355,5.6,7.4,37,0.00,,,-99.99,1.0,HOBO +U30 +Weather +,2013-05-25 04:30:00,
2013-05-24 22:35:00,61.7,35.1,-100.00,North,355,5.1,7.4,36,0.00,,,-99.99,1.0,HOBO +U30 +Weather +,2013-05-25 04:35:00,
2013-05-24 22:40:00,61.7,35.0,-100.00,North,3,5.1,7.8,36,0.00,,,-99.99,1.0,HOBO +U30 +Weather +,2013-05-25 04:40:00,
2013-05-24 22:45:00,61.8,35.0,-100.00,North,11,5.1,7.8,36,0.00,,,-99.99,1.0,HOBO +U30 +Weather +,2013-05-25 04:45:00,
2013-05-24 22:50:00,61.2,36.7,-100.00,NNE,29,4.5,6.7,40,0.00,,,-99.99,1.0,HOBO +U30 +Weather +,2013-05-25 04:50:00,
2013-05-24 22:55:00,60.5,38.0,-100.00,NE,34,4.0,6.3,43,0.00,,,-99.99,1.0,HOBO +U30 +Weather +,2013-05-25 04:55:00,
2013-05-24 23:00:00,61.2,35.6,-100.00,NNE,29,3.4,6.7,38,0.00,,,-99.99,1.0,HOBO +U30 +Weather +,2013-05-25 05:00:00,
2013-05-24 23:05:00,62.2,33.9,-100.00,NNE,17,4.0,8.9,34,0.00,,,-99.99,1.0,HOBO +U30 +Weather +,2013-05-25 05:05:00,
2013-05-24 23:10:00,62.4,34.1,-100.00,NNE,27,4.0,6.3,34,0.00,,,-99.99,1.0,HOBO +U30 +Weather +,2013-05-25 05:10:00,
2013-05-24 23:15:00,62.9,32.9,-100.00,NNE,27,4.5,8.9,32,0.00,,,-99.99,1.0,HOBO +U30 +Weather +,2013-05-25 05:15:00,
2013-05-24 23:20:00,62.5,33.8,-100.00,NE,35,3.4,6.7,34,0.00,,,-99.99,1.0,HOBO +U30 +Weather +,2013-05-25 05:20:00,
2013-05-24 23:25:00,62.5,33.9,-100.00,NNE,29,4.5,6.7,34,0.00,,,-99.99,1.0,HOBO +U30 +Weather +,2013-05-25 05:25:00,
2013-05-24 23:30:00,61.9,34.3,-100.00,NNE,29,4.5,6.7,35,0.00,,,-99.99,1.0,HOBO +U30 +Weather +,2013-05-25 05:30:00,
2013-05-24 23:35:00,61.6,33.6,-100.00,NNE,21,5.6,7.4,34,0.00,,,-99.99,1.0,HOBO +U30 +Weather +,2013-05-25 05:35:00,
2013-05-24 23:40:00,61.4,33.2,-100.00,NNE,14,5.6,8.9,34,0.00,,,-99.99,1.0,HOBO +U30 +Weather +,2013-05-25 05:40:00,
2013-05-24 23:45:00,61.1,33.5,-100.00,NNE,20,5.6,7.8,35,0.00,,,-99.99,1.0,HOBO +U30 +Weather +,2013-05-25 05:45:00,
2013-05-24 23:50:00,60.7,33.7,-100.00,NNE,18,5.1,7.8,36,0.00,,,-99.99,1.0,HOBO +U30 +Weather +,2013-05-25 05:50:00,
2013-05-24 23:55:00,60.3,34.0,-100.00,NNE,32,4.5,7.4,37,0.00,,,-99.99,1.0,HOBO +U30 +Weather +,2013-05-25 05:55:00,